Location: Belfast
(54.5830°N, 5.9330°W)
Time: 14:08:20
(UTC+01:00)

ISS - Pass Details

Date: 22 May 2017
Orbit: 402 x 408 km, 51.6° (Epoch: 26 May)

Event Time Altitude Azimuth Distance (km) Brightness Sun altitude
Exits shadow 01:06:42 33° 156° (SSE) 702 -3.2 -15.0°
Drops below altitude 10° 01:09:36 10° 95° (E) 1,468 -1.1 -15.0°
Sets 01:11:47 0° 86° (E) 2,329 0.1 -15.0°
